Location: Downe
(51.3167°N, 0.0500°E)
Time: 19:36:36
(UTC+00:00)

Cosmos 2219 Rocket - Pass Details

Date: 17 November 2019
Orbit: 827 x 847 km, 71.0° (Epoch: 05 December)

Event Time Altitude Azimuth Distance (km) Brightness Sun altitude
Exits shadow 05:39:03 - 335° (NNW) 2,791 4.6 -15.5°
Reaches altitude 10° 05:39:57 10° 338° (NNW) 2,468 4.3 -15.4°
Maximum altitude 05:45:23 45° 51° (NE) 1,139 3.2 -14.6°
Drops below altitude 10° 05:50:48 10° 123° (ESE) 2,466 5.8 -13.7°
Sets 05:53:21 0° 130° (SE) 3,399 6.6 -13.3°
